,,Stat6,,Stat2,,Stat8,,Stat9,,Stat10,,Wind1,,Wind1,
time,status,PA1M_AVG,status,PR1M_SUM,status,RH1M_AVG,status,SR1M_AVG,status,TA1M_AVG,status,W1dAve1m,status,W1sAve1m,
2007-05-15, 00:00:00,VALID,917.354,VALID,0,VALID,100,VALID,0,VALID,21.1085,VALID,98,VALID,0.742733,
2007-05-15, 00:01:00,VALID,917.341,VALID,0,VALID,100,VALID,-0.0509425,VALID,21.1161,VALID,102,VALID,0.777431,
2007-05-15, 00:02:00,VALID,917.333,VALID,0,VALID,100,VALID,-0.0169808,VALID,21.0866,VALID,112,VALID,0.710938,
2007-05-15, 00:03:00,VALID,917.341,VALID,0,VALID,100,VALID,-0.0679233,VALID,21.0736,VALID,115,VALID,0.691964,
2007-05-15, 00:04:00,VALID,917.323,VALID,0,VALID,100,VALID,-0.0169808,VALID,21.0734,VALID,120,VALID,0.534226,
2007-05-15, 00:05:00,VALID,917.298,VALID,0,VALID,100,VALID,-0.0169808,VALID,21.0834,VALID,120,VALID,0.522711,
2007-05-15, 00:06:00,VALID,917.286,VALID,0,VALID,100,VALID,-0.0509425,VALID,21.0993,VALID,120,VALID,0.246995,
2007-05-15, 00:07:00,VALID,917.281,VALID,0,VALID,100,VALID,-0.0339617,VALID,21.1353,VALID,120,VALID,0.114644,
2007-05-15, 00:08:00,VALID,917.254,VALID,0,VALID,100,VALID,-0.0169808,VALID,21.171,VALID,120,VALID,0.00509511,
2007-05-15, 00:09:00,VALID,917.246,VALID,0,VALID,100,VALID,-0.0509425,VALID,21.1873,VALID,120,VALID,0.0416667,
2007-05-15, 00:10:00,VALID,917.215,VALID,0,VALID,100,VALID,0.0169808,VALID,21.1705,VALID,120,VALID,0.0197917,
2007-05-15, 00:11:00,VALID,917.191,VALID,0,VALID,100,VALID,-0.0339617,VALID,21.1448,VALID,120,VALID,0.373476,
2007-05-15, 00:12:00,VALID,917.171,VALID,0,VALID,100,VALID,-0.0339617,VALID,21.1283,VALID,129,VALID,0.55506,
2007-05-15, 00:13:00,VALID,917.141,VALID,0,VALID,100,VALID,-0.0169808,VALID,21.1156,VALID,138,VALID,0.673473,
2007-05-15, 00:14:00,VALID,917.113,VALID,0,VALID,100,VALID,-0.0339617,VALID,21.1091,VALID,135,VALID,0.836338,
2007-05-15, 00:15:00,VALID,917.078,VALID,0,VALID,100,VALID,-0.0679233,VALID,21.1126,VALID,117,VALID,0.923549,
2007-05-15, 00:16:00,VALID,917.05,VALID,0,VALID,100,VALID,0,VALID,21.1286,VALID,116,VALID,0.734756,
2007-05-15, 00:17:00,VALID,917.026,VALID,0,VALID,100,VALID,-0.0849042,VALID,21.1515,VALID,128,VALID,0.658918,
2007-05-15, 00:18:00,VALID,916.993,VALID,0,VALID,100,VALID,-0.0679233,VALID,21.1645,VALID,123,VALID,0.656605,
2007-05-15, 00:19:00,VALID,916.964,VALID,0,VALID,100,VALID,0,VALID,21.161,VALID,118,VALID,0.760417,
2007-05-15, 00:20:00,VALID,916.95,VALID,0,VALID,100,VALID,-0.0509425,VALID,21.1743,VALID,106,VALID,0.495477,
2007-05-15, 00:21:00,VALID,916.946,VALID,0,VALID,100,VALID,-0.0509425,VALID,21.1678,VALID,102,VALID,0.461825,
2007-05-15, 00:22:00,VALID,916.964,VALID,0,VALID,100,VALID,-0.0849042,VALID,21.1678,VALID,107,VALID,0.121951,
2007-05-15, 00:23:00,VALID,916.958,VALID,0,VALID,100,VALID,-0.0679233,VALID,21.171,VALID,106,VALID,0.28234,
2007-05-15, 00:24:00,VALID,916.967,VALID,0,VALID,100,VALID,-0.0849042,VALID,21.1678,VALID,106,VALID,0.162348,
2007-05-15, 00:25:00,VALID,916.972,VALID,0,VALID,100,VALID,-0.0509425,VALID,21.1743,VALID,105,VALID,0.325457,
2007-05-15, 00:26:00,VALID,916.965,VALID,0,VALID,100,VALID,-0.0509425,VALID,21.1613,VALID,103,VALID,0.517078,
2007-05-15, 00:27:00,VALID,916.935,VALID,0,VALID,100,VALID,-0.0169808,VALID,21.1743,VALID,102,VALID,0.517535,
2007-05-15, 00:28:00,VALID,916.923,VALID,0,VALID,100,VALID,-0.0509425,VALID,21.1675,VALID,96,VALID,0.740132,
2007-05-15, 00:29:00,VALID,916.919,VALID,0,VALID,100,VALID,-0.0169808,VALID,21.1507,VALID,88,VALID,0.652435,
2007-05-15, 00:30:00,VALID,916.913,VALID,0,VALID,100,VALID,-0.0509425,VALID,21.164,VALID,88,VALID,0.583891,
2007-05-15, 00:31:00,VALID,916.906,VALID,0,VALID,100,VALID,-0.0679233,VALID,21.1613,VALID,88,VALID,0.545945,
2007-05-15, 00:32:00,VALID,916.911,VALID,0,VALID,100,VALID,-0.0169808,VALID,21.1578,VALID,87,VALID,0.452381,
2007-05-15, 00:33:00,VALID,916.924,VALID,0,VALID,100,VALID,-0.0509425,VALID,21.1383,VALID,87,VALID,0.417151,
2007-05-15, 00:34:00,VALID,916.934,VALID,0,VALID,100,VALID,-0.0339617,VALID,21.1053,VALID,86,VALID,0.146094,
2007-05-15, 00:35:00,VALID,916.95,VALID,0,VALID,100,VALID,0.0169808,VALID,21.0926,VALID,86,VALID,0.0196314,
2007-05-15, 00:36:00,VALID,916.936,VALID,0,VALID,100,VALID,-0.0339617,VALID,21.0796,VALID,86,VALID,0.000177557,
2007-05-15, 00:37:00,VALID,916.942,VALID,0,VALID,100,VALID,-0.0679233,VALID,21.1058,VALID,86,VALID,0.267624,
2007-05-15, 00:38:00,VALID,916.944,VALID,0,VALID,100,VALID,-0.0509425,VALID,21.1286,VALID,86,VALID,0.298921,
2007-05-15, 00:39:00,VALID,916.945,VALID,0,VALID,100,VALID,0,VALID,21.1515,VALID,86,VALID,0.383984,
2007-05-15, 00:40:00,VALID,916.908,VALID,0,VALID,100,VALID,-0.0509425,VALID,21.1553,VALID,86,VALID,0.492898,
2007-05-15, 00:41:00,VALID,916.884,VALID,0,VALID,100,VALID,-0.0849042,VALID,21.1383,VALID,86,VALID,0.64668,
2007-05-15, 00:42:00,VALID,916.878,VALID,0,VALID,100,VALID,-0.0509425,VALID,21.1453,VALID,60,VALID,0.776163,
2007-05-15, 00:43:00,VALID,916.872,VALID,0,VALID,100,VALID,-0.0849042,VALID,21.1223,VALID,54,VALID,0.781605,
2007-05-15, 00:44:00,VALID,916.849,VALID,0,VALID,100,VALID,0,VALID,21.1029,VALID,54,VALID,0.791481,
2007-05-15, 00:45:00,VALID,916.847,VALID,0,VALID,100,VALID,-0.0339617,VALID,21.115,VALID,54,VALID,0.76617,
2007-05-15, 00:46:00,VALID,916.822,VALID,0,VALID,100,VALID,-0.0169808,VALID,21.1115,VALID,52,VALID,0.830664,
2007-05-15, 00:47:00,VALID,916.785,VALID,0,VALID,100,VALID,-0.0169808,VALID,21.0988,VALID,50,VALID,0.929315,
2007-05-15, 00:48:00,VALID,916.736,VALID,0,VALID,100,VALID,0,VALID,21.0864,VALID,49,VALID,1.01817,
2007-05-15, 00:49:00,VALID,916.717,VALID,0,VALID,100,VALID,-0.0169808,VALID,21.0734,VALID,48,VALID,0.878162,
2007-05-15, 00:50:00,VALID,916.714,VALID,0,VALID,100,VALID,-0.0169808,VALID,21.0734,VALID,45,VALID,0.981468,
2007-05-15, 00:51:00,VALID,916.716,VALID,0,VALID,100,VALID,-0.0339617,VALID,21.0734,VALID,32,VALID,0.931641,
2007-05-15, 00:52:00,VALID,916.721,VALID,0,VALID,100,VALID,0,VALID,21.0528,VALID,26,VALID,0.773256,
2007-05-15, 00:53:00,VALID,916.728,VALID,0,VALID,100,VALID,-0.0169808,VALID,21.0566,VALID,26,VALID,0.752362,
2007-05-15, 00:54:00,VALID,916.701,VALID,0,VALID,100,VALID,0,VALID,21.0439,VALID,24,VALID,0.895579,
2007-05-15, 00:55:00,VALID,916.693,VALID,0,VALID,100,VALID,-0.0169808,VALID,21.0474,VALID,27,VALID,1.02083,
2007-05-15, 00:56:00,VALID,916.705,VALID,0,VALID,100,VALID,-0.0169808,VALID,21.0404,VALID,36,VALID,0.855841,
2007-05-15, 00:57:00,VALID,916.709,VALID,0,VALID,100,VALID,-0.0339617,VALID,21.0766,VALID,24,VALID,0.765807,
2007-05-15, 00:58:00,VALID,916.707,VALID,0,VALID,100,VALID,-0.0169808,VALID,21.0701,VALID,25,VALID,0.627477,
2007-05-15, 00:59:00,VALID,916.701,VALID,0,VALID,100,VALID,-0.118866,VALID,21.0807,VALID,25,VALID,0.369234,
2007-05-15, 01:00:00,VALID,916.699,VALID,0,VALID,100,VALID,-0.101885,VALID,21.0839,VALID,25,VALID,0.194767,
2007-05-15, 01:01:00,VALID,916.699,VALID,0,VALID,100,VALID,-0.101885,VALID,21.0939,VALID,25,VALID,0.554688,
2007-05-15, 01:02:00,VALID,916.712,VALID,0,VALID,100,VALID,-0.101885,VALID,21.0937,VALID,25,VALID,0.573765,
2007-05-15, 01:03:00,VALID,916.732,VALID,0,VALID,100,VALID,-0.101885,VALID,21.1039,VALID,16,VALID,0.394159,
2007-05-15, 01:04:00,VALID,916.743,VALID,0,VALID,100,VALID,-0.101885,VALID,21.0909,VALID,356,VALID,0.330915,
2007-05-15, 01:05:00,VALID,916.76,VALID,0,VALID,100,VALID,-0.101885,VALID,21.0882,VALID,329,VALID,0.121652,
2007-05-15, 01:06:00,VALID,916.756,VALID,0,VALID,100,VALID,-0.135847,VALID,21.0877,VALID,325,VALID,0.00228659,
2007-05-15, 01:07:00,VALID,916.743,VALID,0,VALID,100,VALID,-0.118866,VALID,21.1072,VALID,354,VALID,0.286701,
2007-05-15, 01:08:00,VALID,916.737,VALID,0,VALID,100,VALID,-0.118866,VALID,21.1034,VALID,4,VALID,0.344105,
2007-05-15, 01:09:00,VALID,916.73,VALID,0,VALID,100,VALID,-0.101885,VALID,21.0877,VALID,2,VALID,0.161086,
2007-05-15, 01:10:00,VALID,916.736,VALID,0,VALID,100,VALID,-0.118866,VALID,21.0939,VALID,2,VALID,0.309524,
2007-05-15, 01:11:00,VALID,916.726,VALID,0,VALID,100,VALID,-0.135847,VALID,21.1009,VALID,2,VALID,0.25,
2007-05-15, 01:12:00,VALID,916.718,VALID,0,VALID,100,VALID,-0.135847,VALID,21.0912,VALID,352,VALID,0.448438,
2007-05-15, 01:13:00,VALID,916.689,VALID,0,VALID,100,VALID,-0.118866,VALID,21.0917,VALID,358,VALID,0.493712,
2007-05-15, 01:14:00,VALID,916.674,VALID,0,VALID,100,VALID,-0.0679233,VALID,21.0574,VALID,341,VALID,0.447266,
2007-05-15, 01:15:00,VALID,916.672,VALID,0,VALID,100,VALID,-0.0339617,VALID,21.0371,VALID,349,VALID,0.352983,
2007-05-15, 01:16:00,VALID,916.682,VALID,0,VALID,100,VALID,-0.0169808,VALID,21.0571,VALID,349,VALID,0.682292,
2007-05-15, 01:17:00,VALID,916.666,VALID,0,VALID,100,VALID,0,VALID,21.0563,VALID,325,VALID,0.420072,
2007-05-15, 01:18:00,VALID,916.67,VALID,0,VALID,100,VALID,-0.0169808,VALID,21.0931,VALID,347,VALID,0.579687,
2007-05-15, 01:19:00,VALID,916.659,VALID,0,VALID,100,VALID,-0.0339617,VALID,21.0801,VALID,340,VALID,0.487909,
2007-05-15, 01:20:00,VALID,916.618,VALID,0,VALID,100,VALID,0,VALID,21.0899,VALID,341,VALID,0.000355114,
2007-05-15, 01:21:00,VALID,916.576,VALID,0,VALID,100,VALID,-0.0509425,VALID,21.0961,VALID,341,VALID,0.0587798,
2007-05-15, 01:22:00,VALID,916.55,VALID,0,VALID,100,VALID,-0.0679233,VALID,21.1061,VALID,322,VALID,0.192116,
2007-05-15, 01:23:00,VALID,916.526,VALID,0,VALID,100,VALID,-0.0169808,VALID,21.1158,VALID,308,VALID,0.135653,
2007-05-15, 01:24:00,VALID,916.496,VALID,0,VALID,100,VALID,-0.0339617,VALID,21.125,VALID,308,VALID,0,
2007-05-15, 01:25:00,VALID,916.448,VALID,0,VALID,100,VALID,-0.0339617,VALID,21.1537,VALID,308,VALID,0.021439,
2007-05-15, 01:26:00,VALID,916.415,VALID,0,VALID,100,VALID,-0.0169808,VALID,21.1705,VALID,308,VALID,0.0746094,
2007-05-15, 01:27:00,VALID,916.399,VALID,0,VALID,100,VALID,-0.0339617,VALID,21.2065,VALID,308,VALID,0.106001,
2007-05-15, 01:28:00,VALID,916.382,VALID,0,VALID,100,VALID,-0.0339617,VALID,21.213,VALID,40,VALID,0.523056,
2007-05-15, 01:29:00,VALID,916.384,VALID,0,VALID,100,VALID,-0.0339617,VALID,21.1732,VALID,50,VALID,0.628089,
2007-05-15, 01:30:00,VALID,916.372,VALID,0,VALID,100,VALID,-0.0509425,VALID,21.1805,VALID,46,VALID,0.52939,
2007-05-15, 01:31:00,VALID,916.35,VALID,0,VALID,100,VALID,-0.0169808,VALID,21.1835,VALID,41,VALID,0.492018,
2007-05-15, 01:32:00,VALID,916.346,VALID,0.2,VALID,100,VALID,-0.0169808,VALID,21.2002,VALID,49,VALID,0.457485,
2007-05-15, 01:33:00,VALID,916.337,VALID,0,VALID,100,VALID,-0.0169808,VALID,21.2195,VALID,47,VALID,0.438988,
2007-05-15, 01:34:00,VALID,916.318,VALID,0,VALID,100,VALID,0,VALID,21.2002,VALID,31,VALID,0.841388,
2007-05-15, 01:35:00,VALID,916.298,VALID,0,VALID,100,VALID,-0.0169808,VALID,21.1867,VALID,41,VALID,0.928838,
2007-05-15, 01:36:00,VALID,916.298,VALID,0,VALID,100,VALID,-0.0169808,VALID,21.1967,VALID,32,VALID,0.694141,
2007-05-15, 01:37:00,VALID,916.291,VALID,0,VALID,100,VALID,-0.0169808,VALID,21.2222,VALID,26,VALID,0.717297,
2007-05-15, 01:38:00,VALID,916.289,VALID,0,VALID,100,VALID,0,VALID,21.2322,VALID,19,VALID,0.580412,
2007-05-15, 01:39:00,VALID,916.287,VALID,0,VALID,100,VALID,-0.0169808,VALID,21.2092,VALID,22,VALID,0.279948,
2007-05-15, 01:40:00,VALID,916.301,VALID,0,VALID,100,VALID,-0.0169808,VALID,21.2032,VALID,23,VALID,0.421689,
2007-05-15, 01:41:00,VALID,916.313,VALID,0,VALID,100,VALID,-0.0169808,VALID,21.21,VALID,23,VALID,0.065625,
2007-05-15, 01:42:00,VALID,916.318,VALID,0,VALID,100,VALID,0,VALID,21.1994,VALID,23,VALID,0.0120739,
2007-05-15, 01:43:00,VALID,916.323,VALID,0,VALID,100,VALID,-0.0679233,VALID,21.2257,VALID,23,VALID,0.0296875,
2007-05-15, 01:44:00,VALID,916.305,VALID,0,VALID,100,VALID,-0.0679233,VALID,21.2389,VALID,28,VALID,0.293255,
2007-05-15, 01:45:00,VALID,916.279,VALID,0,VALID,100,VALID,0,VALID,21.2552,VALID,38,VALID,0.598586,
2007-05-15, 01:46:00,VALID,916.265,VALID,0,VALID,100,VALID,-0.0509425,VALID,21.2714,VALID,53,VALID,0.736923,
2007-05-15, 01:47:00,VALID,916.243,VALID,0,VALID,100,VALID,0,VALID,21.2581,VALID,63,VALID,0.873857,
2007-05-15, 01:48:00,VALID,916.231,VALID,0,VALID,100,VALID,-0.0169808,VALID,21.2554,VALID,65,VALID,0.576882,
2007-05-15, 01:49:00,VALID,916.228,VALID,0,VALID,100,VALID,-0.0169808,VALID,21.2349,VALID,65,VALID,0.388542,
2007-05-15, 01:50:00,VALID,916.229,VALID,0,VALID,100,VALID,-0.0169808,VALID,21.2354,VALID,65,VALID,0.0351563,
2007-05-15, 01:51:00,VALID,916.225,VALID,0,VALID,100,VALID,-0.0339617,VALID,21.2289,VALID,70,VALID,0.413707,
2007-05-15, 01:52:00,VALID,916.207,VALID,0,VALID,100,VALID,0,VALID,21.2027,VALID,149,VALID,0.941406,
2007-05-15, 01:53:00,VALID,916.205,VALID,0,VALID,100,VALID,0,VALID,21.187,VALID,147,VALID,0.658203,
2007-05-15, 01:54:00,VALID,916.192,VALID,0,VALID,100,VALID,-0.0169808,VALID,21.141,VALID,148,VALID,0.494186,
2007-05-15, 01:55:00,VALID,916.172,VALID,0,VALID,100,VALID,-0.0339617,VALID,21.1191,VALID,138,VALID,0.668826,
2007-05-15, 01:56:00,VALID,916.18,VALID,0,VALID,100,VALID,-0.0509425,VALID,21.0964,VALID,132,VALID,0.642857,
2007-05-15, 01:57:00,VALID,916.213,VALID,0,VALID,100,VALID,-0.0509425,VALID,21.0799,VALID,147,VALID,0.729833,
2007-05-15, 01:58:00,VALID,916.229,VALID,0,VALID,100,VALID,-0.0509425,VALID,21.0539,VALID,161,VALID,0.769622,
2007-05-15, 01:59:00,VALID,916.255,VALID,0,VALID,100,VALID,-0.101885,VALID,21.0444,VALID,173,VALID,0.917683,
2007-05-15, 02:00:00,VALID,916.274,VALID,0,VALID,100,VALID,-0.0509425,VALID,21.0217,VALID,180,VALID,0.741122,
2007-05-15, 02:01:00,VALID,916.296,VALID,0,VALID,100,VALID,-0.0339617,VALID,21.0182,VALID,186,VALID,0.446456,
2007-05-15, 02:02:00,VALID,916.317,VALID,0,VALID,100,VALID,-0.0169808,VALID,21.0109,VALID,186,VALID,0.428961,
2007-05-15, 02:03:00,VALID,916.32,VALID,0,VALID,100,VALID,0,VALID,21.0279,VALID,185,VALID,0.154474,
2007-05-15, 02:04:00,VALID,916.301,VALID,0,VALID,100,VALID,-0.0169808,VALID,21.0274,VALID,176,VALID,0.296503,
2007-05-15, 02:05:00,VALID,916.264,VALID,0,VALID,100,VALID,-0.0339617,VALID,21.0404,VALID,151,VALID,0.945126,
2007-05-15, 02:06:00,VALID,916.258,VALID,0,VALID,100,VALID,0,VALID,21.0439,VALID,152,VALID,0.734197,
2007-05-15, 02:07:00,VALID,916.256,VALID,0,VALID,100,VALID,0,VALID,21.0306,VALID,139,VALID,0.70434,
2007-05-15, 02:08:00,VALID,916.271,VALID,0,VALID,100,VALID,-0.0339617,VALID,20.9979,VALID,128,VALID,0.919779,
2007-05-15, 02:09:00,VALID,916.302,VALID,0,VALID,100,VALID,-0.0169808,VALID,20.9917,VALID,125,VALID,0.803943,
2007-05-15, 02:10:00,VALID,916.338,VALID,0,VALID,100,VALID,-0.0509425,VALID,20.989,VALID,124,VALID,0.55506,
2007-05-15, 02:11:00,VALID,916.378,VALID,0,VALID,100,VALID,-0.0339617,VALID,20.966,VALID,126,VALID,0.27983,
2007-05-15, 02:12:00,VALID,916.409,VALID,0,VALID,100,VALID,-0.0679233,VALID,20.9595,VALID,126,VALID,0.346839,
2007-05-15, 02:13:00,VALID,916.432,VALID,0,VALID,100,VALID,-0.0169808,VALID,20.95,VALID,150,VALID,0.305729,
2007-05-15, 02:14:00,VALID,916.452,VALID,0,VALID,100,VALID,-0.0169808,VALID,20.953,VALID,185,VALID,0.725174,
2007-05-15, 02:15:00,VALID,916.455,VALID,0,VALID,100,VALID,-0.0339617,VALID,20.9533,VALID,190,VALID,0.721037,
2007-05-15, 02:16:00,VALID,916.481,VALID,0,VALID,100,VALID,-0.0339617,VALID,20.9465,VALID,190,VALID,0.650923,
2007-05-15, 02:17:00,VALID,916.501,VALID,0,VALID,100,VALID,0,VALID,20.9365,VALID,189,VALID,0.677455,
2007-05-15, 02:18:00,VALID,916.531,VALID,0,VALID,100,VALID,-0.0169808,VALID,20.9427,VALID,190,VALID,0.78267,
2007-05-15, 02:19:00,VALID,916.543,VALID,0,VALID,100,VALID,0,VALID,20.9325,VALID,210,VALID,0.985618,
2007-05-15, 02:20:00,VALID,916.532,VALID,0,VALID,100,VALID,-0.0339617,VALID,20.943,VALID,232,VALID,0.764129,
2007-05-15, 02:21:00,VALID,916.483,VALID,0,VALID,100,VALID,-0.0509425,VALID,20.9533,VALID,193,VALID,1.35652,
2007-05-15, 02:22:00,VALID,916.403,VALID,0,VALID,100,VALID,-0.0679233,VALID,20.9146,VALID,173,VALID,0.990412,
2007-05-15, 02:23:00,VALID,916.351,VALID,0,VALID,100,VALID,0,VALID,20.8686,VALID,161,VALID,1.39902,
2007-05-15, 02:24:00,VALID,916.317,VALID,0,VALID,100,VALID,-0.0849042,VALID,20.8197,VALID,186,VALID,0.974609,
2007-05-15, 02:25:00,VALID,916.296,VALID,0,VALID,100,VALID,-0.0679233,VALID,20.7972,VALID,184,VALID,0.902004,
2007-05-15, 02:26:00,VALID,916.292,VALID,0,VALID,100,VALID,-0.0509425,VALID,20.7872,VALID,189,VALID,1.15163,
2007-05-15, 02:27:00,VALID,916.285,VALID,0,VALID,100,VALID,0,VALID,20.8004,VALID,178,VALID,1.29246,
2007-05-15, 02:28:00,VALID,916.289,VALID,0,VALID,100,VALID,-0.0339617,VALID,20.7875,VALID,184,VALID,1.99905,
2007-05-15, 02:29:00,VALID,916.294,VALID,0,VALID,100,VALID,-0.0169808,VALID,20.8034,VALID,184,VALID,1.45122,
2007-05-15, 02:30:00,VALID,916.302,VALID,0,VALID,100,VALID,0,VALID,20.8164,VALID,178,VALID,1.141,
2007-05-15, 02:31:00,VALID,916.316,VALID,0,VALID,100,VALID,-0.0339617,VALID,20.8297,VALID,187,VALID,0.54652,
2007-05-15, 02:32:00,VALID,916.334,VALID,0,VALID,100,VALID,-0.0339617,VALID,20.8426,VALID,207,VALID,0.449314,
2007-05-15, 02:33:00,VALID,916.357,VALID,0,VALID,100,VALID,0,VALID,20.8459,VALID,201,VALID,0.627826,
2007-05-15, 02:34:00,VALID,916.351,VALID,0,VALID,100,VALID,-0.0339617,VALID,20.8583,VALID,208,VALID,0.522166,
2007-05-15, 02:35:00,VALID,916.323,VALID,0.4,VALID,100,VALID,-0.0169808,VALID,20.8651,VALID,195,VALID,1.26853,
2007-05-15, 02:36:00,VALID,916.257,VALID,0,VALID,100,VALID,-0.0509425,VALID,20.8586,VALID,184,VALID,1.34561,
2007-05-15, 02:37:00,VALID,916.203,VALID,0,VALID,100,VALID,-0.0339617,VALID,20.8202,VALID,197,VALID,1.58053,
2007-05-15, 02:38:00,VALID,916.186,VALID,0,VALID,100,VALID,-0.0509425,VALID,20.7969,VALID,215,VALID,0.974276,
2007-05-15, 02:39:00,VALID,916.201,VALID,0,VALID,100,VALID,-0.0509425,VALID,20.7577,VALID,242,VALID,1.34969,
2007-05-15, 02:40:00,VALID,916.226,VALID,0,VALID,99.9377,VALID,-0.0169808,VALID,20.7385,VALID,246,VALID,1.18477,
2007-05-15, 02:41:00,VALID,916.257,VALID,0,VALID,99.6773,VALID,-0.0339617,VALID,20.7455,VALID,201,VALID,0.700238,
2007-05-15, 02:42:00,VALID,916.22,VALID,0,VALID,99.6289,VALID,-0.0169808,VALID,20.7285,VALID,204,VALID,0.422057,
2007-05-15, 02:43:00,VALID,916.165,VALID,0.2,VALID,99.339,VALID,-0.0169808,VALID,20.6998,VALID,189,VALID,0.556212,
2007-05-15, 02:44:00,VALID,916.128,VALID,0,VALID,99.3377,VALID,-0.0509425,VALID,20.6796,VALID,154,VALID,0.661585,
2007-05-15, 02:45:00,VALID,916.142,VALID,0,VALID,99.2487,VALID,-0.0679233,VALID,20.6736,VALID,178,VALID,0.544792,
2007-05-15, 02:46:00,VALID,916.176,VALID,0,VALID,99.4649,VALID,-0.0509425,VALID,20.6866,VALID,173,VALID,0.402071,
2007-05-15, 02:47:00,VALID,916.206,VALID,0,VALID,99.4013,VALID,0,VALID,20.6709,VALID,168,VALID,0.216704,
2007-05-15, 02:48:00,VALID,916.228,VALID,0,VALID,99.4496,VALID,-0.0509425,VALID,20.6474,VALID,166,VALID,0.000585938,
2007-05-15, 02:49:00,VALID,916.252,VALID,0,VALID,99.4929,VALID,-0.0509425,VALID,20.6479,VALID,166,VALID,0.193026,
2007-05-15, 02:50:00,VALID,916.277,VALID,0,VALID,99.4306,VALID,0,VALID,20.6314,VALID,184,VALID,0.445694,
2007-05-15, 02:51:00,VALID,916.287,VALID,0,VALID,99.6048,VALID,-0.0339617,VALID,20.6447,VALID,210,VALID,0.523801,
2007-05-15, 02:52:00,VALID,916.288,VALID,0,VALID,99.765,VALID,0,VALID,20.6344,VALID,178,VALID,1.06214,
2007-05-15, 02:53:00,VALID,916.297,VALID,0,VALID,99.8438,VALID,-0.0339617,VALID,20.6182,VALID,168,VALID,0.650436,
2007-05-15, 02:54:00,VALID,916.296,VALID,0,VALID,99.9606,VALID,0,VALID,20.5957,VALID,184,VALID,0.547637,
2007-05-15, 02:55:00,VALID,916.303,VALID,0,VALID,100,VALID,-0.0169808,VALID,20.5795,VALID,164,VALID,0.692535,
2007-05-15, 02:56:00,VALID,916.298,VALID,0,VALID,100,VALID,-0.0169808,VALID,20.566,VALID,171,VALID,0.614025,
2007-05-15, 02:57:00,VALID,916.287,VALID,0,VALID,100,VALID,0,VALID,20.5697,VALID,158,VALID,0.788231,
2007-05-15, 02:58:00,VALID,916.284,VALID,0,VALID,100,VALID,0,VALID,20.56,VALID,174,VALID,0.811592,
2007-05-15, 02:59:00,VALID,916.264,VALID,0.2,VALID,100,VALID,0,VALID,20.547,VALID,179,VALID,0.763477,
2007-05-15, 03:00:00,VALID,916.247,VALID,0,VALID,100,VALID,-0.0169808,VALID,20.5141,VALID,151,VALID,0.999112,
2007-05-15, 03:01:00,VALID,916.242,VALID,0,VALID,100,VALID,-0.0339617,VALID,20.4816,VALID,136,VALID,0.800595,
2007-05-15, 03:02:00,VALID,916.245,VALID,0,VALID,100,VALID,-0.0339617,VALID,20.4724,VALID,122,VALID,0.389172,
2007-05-15, 03:03:00,VALID,916.242,VALID,0,VALID,100,VALID,-0.0169808,VALID,20.4624,VALID,137,VALID,0.97532,
2007-05-15, 03:04:00,VALID,916.242,VALID,0,VALID,100,VALID,-0.0169808,VALID,20.4502,VALID,134,VALID,1.24498,
2007-05-15, 03:05:00,VALID,916.223,VALID,0.2,VALID,100,VALID,0,VALID,20.4199,VALID,142,VALID,1.24758,
2007-05-15, 03:06:00,VALID,916.222,VALID,0,VALID,100,VALID,-0.0339617,VALID,20.4042,VALID,140,VALID,1.15407,
2007-05-15, 03:07:00,VALID,916.207,VALID,0,VALID,100,VALID,-0.0169808,VALID,20.401,VALID,155,VALID,0.934261,
2007-05-15, 03:08:00,VALID,916.21,VALID,0,VALID,100,VALID,-0.0339617,VALID,20.408,VALID,154,VALID,0.747024,
2007-05-15, 03:09:00,VALID,916.214,VALID,0.2,VALID,100,VALID,-0.0509425,VALID,20.3945,VALID,154,VALID,0.972917,
2007-05-15, 03:10:00,VALID,916.203,VALID,0,VALID,100,VALID,-0.0169808,VALID,20.3877,VALID,132,VALID,0.952943,
2007-05-15, 03:11:00,VALID,916.203,VALID,0,VALID,100,VALID,-0.0169808,VALID,20.3907,VALID,154,VALID,0.810082,
2007-05-15, 03:12:00,VALID,916.184,VALID,0,VALID,100,VALID,-0.0339617,VALID,20.3713,VALID,146,VALID,0.935454,
2007-05-15, 03:13:00,VALID,916.177,VALID,0,VALID,100,VALID,-0.0169808,VALID,20.3545,VALID,150,VALID,0.798047,
2007-05-15, 03:14:00,VALID,916.156,VALID,0,VALID,100,VALID,0,VALID,20.352,VALID,146,VALID,1.30342,
2007-05-15, 03:15:00,VALID,916.153,VALID,0,VALID,100,VALID,0,VALID,20.3388,VALID,146,VALID,0.68941,
2007-05-15, 03:16:00,VALID,916.152,VALID,0,VALID,100,VALID,0,VALID,20.3463,VALID,134,VALID,0.78924,
2007-05-15, 03:17:00,VALID,916.166,VALID,0,VALID,100,VALID,-0.0169808,VALID,20.3263,VALID,136,VALID,0.569792,
2007-05-15, 03:18:00,VALID,916.135,VALID,0,VALID,100,VALID,0,VALID,20.3093,VALID,138,VALID,1.01643,
2007-05-15, 03:19:00,VALID,916.129,VALID,0.2,VALID,100,VALID,-0.0169808,VALID,20.3064,VALID,128,VALID,0.885174,
2007-05-15, 03:20:00,VALID,916.117,VALID,0,VALID,100,VALID,0,VALID,20.3034,VALID,126,VALID,1.0109,
2007-05-15, 03:21:00,VALID,916.109,VALID,0,VALID,100,VALID,-0.0169808,VALID,20.3064,VALID,105,VALID,0.727679,
2007-05-15, 03:22:00,VALID,916.095,VALID,0,VALID,100,VALID,0,VALID,20.3291,VALID,88,VALID,0.94029,
2007-05-15, 03:23:00,VALID,916.097,VALID,0,VALID,100,VALID,0,VALID,20.3231,VALID,73,VALID,1.22871,
2007-05-15, 03:24:00,VALID,916.117,VALID,0,VALID,100,VALID,-0.0169808,VALID,20.3126,VALID,64,VALID,1.12444,
2007-05-15, 03:25:00,VALID,916.136,VALID,0,VALID,100,VALID,-0.0339617,VALID,20.2969,VALID,62,VALID,1.03685,
2007-05-15, 03:26:00,VALID,916.149,VALID,0,VALID,100,VALID,0,VALID,20.2869,VALID,50,VALID,0.869318,
2007-05-15, 03:27:00,VALID,916.141,VALID,0,VALID,100,VALID,0,VALID,20.2804,VALID,64,VALID,0.622656,
2007-05-15, 03:28:00,VALID,916.113,VALID,0,VALID,100,VALID,-0.0169808,VALID,20.2869,VALID,57,VALID,0.977325,
2007-05-15, 03:29:00,VALID,916.103,VALID,0,VALID,100,VALID,0,VALID,20.2834,VALID,54,VALID,1.258,
2007-05-15, 03:30:00,VALID,916.097,VALID,0,VALID,100,VALID,0,VALID,20.2669,VALID,48,VALID,0.953488,
2007-05-15, 03:31:00,VALID,916.084,VALID,0,VALID,100,VALID,0,VALID,20.2607,VALID,64,VALID,0.944803,
2007-05-15, 03:32:00,VALID,916.063,VALID,0.2,VALID,100,VALID,0,VALID,20.2542,VALID,74,VALID,1.02915,
2007-05-15, 03:33:00,VALID,916.053,VALID,0,VALID,100,VALID,0,VALID,20.2444,VALID,84,VALID,1.12314,
2007-05-15, 03:34:00,VALID,916.055,VALID,0,VALID,100,VALID,-0.0169808,VALID,20.2312,VALID,99,VALID,0.929497,
2007-05-15, 03:35:00,VALID,916.037,VALID,0,VALID,100,VALID,0,VALID,20.2252,VALID,126,VALID,0.845898,
2007-05-15, 03:36:00,VALID,916.042,VALID,0,VALID,100,VALID,0,VALID,20.2023,VALID,137,VALID,0.978125,
2007-05-15, 03:37:00,VALID,916.027,VALID,0,VALID,100,VALID,-0.0169808,VALID,20.2055,VALID,147,VALID,0.856831,
2007-05-15, 03:38:00,VALID,916.037,VALID,0,VALID,100,VALID,0.0169808,VALID,20.212,VALID,139,VALID,0.767045,